Volkel, Netherlands

2:23 PM CEST on August 22, 2017 (GMT +0200)
Volkel Air Base

Weather History for EHVK - February, 2013

Change the Weather History Date:

Friday, February 1, 2013

  Actual Average Record
Temperature  
Mean Temperature 42 °F -  
Max Temperature 46 °F 43 °F 53 °F (2002)
Min Temperature 37 °F 33 °F 14 °F (1998)
Degree Days  
Heating Degree Days 24    
Moisture  
Dew Point 39 °F    
Average Humidity 95    
Maximum Humidity 100    
Minimum Humidity 71    
Precipitation  
Precipitation 0.00 in - - ()
Sea Level Pressure  
Sea Level Pressure 29.50 in    
Wind  
Wind Speed 9 mph ()    
Max Wind Speed 16 mph    
Max Gust Speed -    
Visibility 5.4 miles    
Events Rain    
Averages and records for this station are not official NWS values.
T = Trace of Precipitation, MM = Missing Value Source: Averaged Metar Reports

Daily Weather History Graph

Daily Weather History Graph

Search for Another Location

Airport or City:

Trip Planner

Search our weather history database for the weather conditions in past years. The results will help you decide how hot, cold, wet, or windy it might be!

Date:

Astronomy

Feb. 01, 2013 Rise Set
Actual Time 8:15 AM CET 5:26 PM CET
Civil Twilight 7:39 AM CET 6:02 PM CET
Nautical Twilight 6:59 AM CET 6:43 PM CET
Astronomical Twilight 6:20 AM CET 7:22 PM CET
Moon No Moon Rise 9:54 AM CET (2/1)
Length of Visible Light 10h 23m
Length of Day
9h 10m
Waning Gibbous, 73% of the Moon is Illuminated
Feb 1
Waning Gibbous
Feb 3
Last Quarter
Feb 10
New
Feb 17
First Quarter
Feb 25
Full

Hourly Weather History & Observations

Time (CET) Temp. Windchill Dew Point Humidity Pressure Visibility Wind Dir Wind Speed Gust Speed Precip Events Conditions
12:25 AM 46.4 °F 40.1 °F 37.4 °F 71% 29.86 in 6.2 mi WSW 15.0 mph - N/A   Partly Cloudy
12:55 AM 44.6 °F 37.8 °F 39.2 °F 81% 29.86 in 6.2 mi WSW 15.0 mph - N/A   Partly Cloudy
1:25 AM 44.6 °F 38.1 °F 39.2 °F 81% 29.83 in 6.2 mi WSW 13.8 mph - N/A   Unknown
1:55 AM 44.6 °F 38.1 °F 39.2 °F 81% 29.83 in 6.2 mi WSW 13.8 mph - N/A   Partly Cloudy
2:25 AM 42.8 °F 36.2 °F 39.2 °F 87% 29.83 in 6.2 mi WSW 12.7 mph - N/A   Scattered Clouds
2:55 AM 42.8 °F 36.6 °F 39.2 °F 87% 29.83 in 6.2 mi SW 11.5 mph - N/A   Scattered Clouds
3:25 AM 42.8 °F 37.0 °F 39.2 °F 87% 29.83 in 6.2 mi SW 10.4 mph - N/A   Mostly Cloudy
3:55 AM 42.8 °F 37.0 °F 41.0 °F 93% 29.80 in 6.2 mi SW 10.4 mph - N/A   Overcast
4:25 AM 42.8 °F 37.0 °F 39.2 °F 87% 29.80 in 6.2 mi SW 10.4 mph - N/A   Mostly Cloudy
4:55 AM 44.6 °F 38.8 °F 41.0 °F 87% 29.77 in 6.2 mi SW 11.5 mph - N/A   Mostly Cloudy
5:25 AM 44.6 °F 38.8 °F 41.0 °F 87% 29.77 in 6.2 mi SW 11.5 mph - N/A   Mostly Cloudy
5:55 AM 44.6 °F 38.8 °F 42.8 °F 93% 29.74 in 5.0 mi SW 11.5 mph - N/A Rain Light Rain
6:25 AM 44.6 °F 38.8 °F 42.8 °F 93% 29.74 in 6.2 mi SW 11.5 mph - N/A   Mostly Cloudy
6:55 AM 44.6 °F 38.4 °F 42.8 °F 93% 29.71 in 6.2 mi SW 12.7 mph - N/A   Drizzle
7:25 AM 44.6 °F 37.4 °F 42.8 °F 93% 29.71 in 6.2 mi SW 16.1 mph - N/A   Mostly Cloudy
7:55 AM 41.0 °F 35.8 °F 37.4 °F 87% 29.71 in 5.6 mi West 8.1 mph - N/A Rain Light Rain Showers
8:25 AM 41.0 °F 37.1 °F 39.2 °F 93% 29.68 in 6.2 mi West 5.8 mph - N/A Rain Light Rain
8:55 AM 41.0 °F 38.0 °F 39.2 °F 93% 29.68 in 6.2 mi SSW 4.6 mph - N/A   Light Drizzle
9:25 AM 42.8 °F 38.0 °F 41.0 °F 93% 29.65 in 6.2 mi SSW 8.1 mph - N/A   Drizzle
9:55 AM 42.8 °F 37.5 °F 41.0 °F 93% 29.65 in 6.2 mi SW 9.2 mph - N/A   Drizzle
10:25 AM 42.8 °F 37.5 °F 41.0 °F 93% 29.62 in 6.2 mi SSW 9.2 mph - N/A Rain Drizzle
10:55 AM 42.8 °F 38.0 °F 41.0 °F 93% 29.59 in 6.2 mi SSW 8.1 mph - N/A Rain Light Rain
11:25 AM 42.8 °F 37.0 °F 41.0 °F 93% 29.59 in 6.2 mi SSW 10.4 mph - N/A Rain Light Rain
11:55 AM 42.8 °F 36.6 °F 41.0 °F 93% 29.56 in 6.2 mi SSW 11.5 mph - N/A Rain Light Rain
12:25 PM 41.0 °F 34.3 °F 39.2 °F 93% 29.56 in 6.2 mi SSW 11.5 mph - N/A Rain Light Rain
12:55 PM 41.0 °F 34.3 °F 39.2 °F 93% 29.53 in 6.2 mi SSW 11.5 mph - N/A Rain Light Rain
1:25 PM 41.0 °F 34.7 °F 39.2 °F 93% 29.50 in 6.2 mi SSW 10.4 mph - N/A Rain Light Rain
1:55 PM 41.0 °F 35.2 °F 39.2 °F 93% 29.47 in 6.2 mi SSW 9.2 mph - N/A Rain Light Rain
2:25 PM 41.0 °F 36.4 °F 39.2 °F 93% 29.44 in 6.2 mi South 6.9 mph - N/A Rain Light Rain Showers
2:55 PM 41.0 °F 38.0 °F 39.2 °F 93% 29.42 in 6.2 mi SSE 4.6 mph - N/A Rain Light Rain
3:25 PM 41.0 °F 38.0 °F 41.0 °F 100% 29.39 in 6.2 mi ESE 4.6 mph - N/A Rain Light Rain
3:55 PM 41.0 °F 38.0 °F 41.0 °F 100% 29.39 in 6.2 mi ESE 4.6 mph - N/A Rain Light Rain Showers
4:12 PM 41.0 °F 38.0 °F 41.0 °F 100% 29.36 in 4.3 mi ESE 4.6 mph - N/A Rain Light Rain
4:16 PM 41.0 °F 38.0 °F 41.0 °F 100% 29.36 in 4.3 mi ESE 4.6 mph - N/A Rain Light Rain
4:17 PM 41.0 °F 39.0 °F 41.0 °F 100% 29.36 in 4.3 mi East 3.5 mph - N/A Rain Light Rain
4:25 PM 41.0 °F - 41.0 °F 100% 29.36 in 3.7 mi ENE 2.3 mph - N/A Rain Light Rain
4:30 PM 41.0 °F - 41.0 °F 100% 29.36 in 3.7 mi NNE 2.3 mph - N/A Rain Light Rain
4:55 PM 41.0 °F 38.0 °F 41.0 °F 100% 29.36 in 3.1 mi ENE 4.6 mph - N/A Rain Light Rain
5:20 PM 41.0 °F 37.1 °F 41.0 °F 100% 29.33 in 3.7 mi NNE 5.8 mph - N/A Rain Light Rain Showers
5:25 PM 41.0 °F 37.1 °F 41.0 °F 100% 29.33 in 3.1 mi NNE 5.8 mph - N/A Rain Light Rain Showers
5:31 PM 41.0 °F 37.1 °F 41.0 °F 100% 29.33 in - NNE 5.8 mph - N/A Rain Light Rain Showers
5:35 PM 41.0 °F 36.4 °F 41.0 °F 100% 29.33 in - NNE 6.9 mph - N/A Rain Light Rain
5:42 PM 41.0 °F 36.4 °F 41.0 °F 100% 29.33 in 3.1 mi North 6.9 mph - N/A Rain Light Rain
5:55 PM 39.2 °F 34.2 °F 39.2 °F 100% 29.33 in 5.6 mi North 6.9 mph - N/A Rain Light Rain Showers
6:05 PM 39.2 °F 35.0 °F 39.2 °F 100% 29.33 in 6.2 mi North 5.8 mph - N/A Rain Light Rain
6:16 PM 39.2 °F 35.0 °F 39.2 °F 100% 29.33 in 6.2 mi North 5.8 mph - N/A Rain Light Rain
6:25 PM 39.2 °F 35.9 °F 39.2 °F 100% 29.33 in 6.2 mi North 4.6 mph - N/A Rain Light Rain
6:29 PM 39.2 °F 35.0 °F 39.2 °F 100% 29.33 in 6.2 mi North 5.8 mph - N/A Rain Light Rain
6:55 PM 39.2 °F 33.6 °F 39.2 °F 100% 29.36 in 6.2 mi NNW 8.1 mph - N/A Rain Light Rain
7:25 PM 39.2 °F 33.6 °F 37.4 °F 93% 29.36 in 5.0 mi North 8.1 mph - N/A   Light Drizzle
7:55 PM 39.2 °F 33.6 °F 37.4 °F 93% 29.36 in 5.6 mi NNW 8.1 mph - N/A   Mostly Cloudy
8:11 PM 39.2 °F 33.0 °F 37.4 °F 93% 29.36 in 5.0 mi NNW 9.2 mph - N/A   Overcast
8:25 PM 39.2 °F 33.0 °F 37.4 °F 93% 29.36 in 3.7 mi NNW 9.2 mph - N/A   Overcast
8:30 PM 39.2 °F 34.2 °F 37.4 °F 93% 29.36 in 3.7 mi NNW 6.9 mph - N/A   Overcast
8:41 PM 37.4 °F 31.4 °F 37.4 °F 100% 29.36 in 5.0 mi NNW 8.1 mph - N/A   Mostly Cloudy
8:55 PM 37.4 °F 31.4 °F 37.4 °F 100% 29.36 in 4.3 mi NNW 8.1 mph - N/A   Overcast
9:01 PM 37.4 °F 32.1 °F 37.4 °F 100% 29.36 in 5.0 mi NNW 6.9 mph - N/A   Overcast
9:07 PM 37.4 °F 32.1 °F 37.4 °F 100% 29.36 in 5.0 mi NNW 6.9 mph - N/A   Overcast
9:18 PM 37.4 °F 32.8 °F 37.4 °F 100% 29.36 in 5.6 mi NNW 5.8 mph - N/A   Mostly Cloudy
9:25 PM 37.4 °F 33.8 °F 37.4 °F 100% 29.36 in 6.2 mi NNW 4.6 mph - N/A   Overcast
9:26 PM 37.4 °F 33.8 °F 37.4 °F 100% 29.36 in 6.2 mi NNW 4.6 mph - N/A   Overcast
9:55 PM 37.4 °F 34.9 °F 35.6 °F 93% 29.39 in 4.3 mi WNW 3.5 mph - N/A   Mostly Cloudy
9:59 PM 37.4 °F 33.8 °F 35.6 °F 93% 29.39 in 5.0 mi WNW 4.6 mph - N/A   Overcast
10:00 PM 37.4 °F 33.8 °F 35.6 °F 93% 29.39 in 4.3 mi WNW 4.6 mph - N/A   Overcast
10:25 PM 37.4 °F 33.8 °F 35.6 °F 93% 29.39 in 4.3 mi WNW 4.6 mph - N/A   Overcast
10:45 PM 37.4 °F 33.8 °F 37.4 °F 100% 29.39 in 3.1 mi West 4.6 mph - N/A   Overcast
10:55 PM 37.4 °F 33.8 °F 37.4 °F 100% 29.39 in 3.1 mi West 4.6 mph - N/A   Overcast
11:25 PM 37.4 °F 32.8 °F 37.4 °F 100% 29.39 in - West 5.8 mph - N/A   Overcast
11:55 PM 37.4 °F 33.8 °F 37.4 °F 100% 29.42 in 3.1 mi West 4.6 mph - N/A   Mostly Cloudy